This demonstration page uses our WeatherBlox Daily Observations layout. Learn more.

Left ArrowRight Arrow

38.80484, -77.04692

Hourly Observations for October 25, 2019

Temp ( °F °C ) Dew Point ( °F °C ) Humidity (%) Winds ( mph kmh ) Pressure ( in mb ) Visibility ( mi km ) Precip ( " mm )
12:52 am 00:52 Clear 53 11.7 53 11.7 100 100 Calm 30.30 1026 10 16 0.00 0.00
1:52 am 01:52 Clear 52 11.1 52 11.1 100 100 SW 3 6 30.30 1026 10 16 0.00 0.00
2:52 am 02:52 Clear 51 10.6 51 10.6 100 100 WSW 3 6 30.29 1026 10 16 0.00 0.00
3:52 am 03:52 Partly Cloudy 51 10.6 51 10.6 100 100 Calm 30.29 1026 10 16 0.00 0.00
4:52 am 04:52 Cloudy 52 11.1 52 11.1 100 100 Calm 30.29 1026 10 16 0.00 0.00
5:52 am 05:52 Cloudy 51 10.6 51 10.6 100 100 Calm 30.30 1026 10 16 0.00 0.00
6:52 am 06:52 Mostly Cloudy 51 10.6 51 10.6 100 100 Calm 30.30 1026 10 16 0.00 0.00
7:52 am 07:52 Mostly Cloudy 51 10.6 51 10.6 100 100 Calm 30.29 1026 10 16 0.00 0.00
8:52 am 08:52 Mostly Cloudy 56 13.3 54 12.2 93 93 Calm 30.31 1026 10 16 0.00 0.00
9:52 am 09:52 Mostly Cloudy 56 13.3 54 12.2 93 93 WSW 3 6 30.32 1027 10 16 0.00 0.00
10:52 am 10:52 Mostly Cloudy 58 14.4 51 10.6 78 78 WSW 3 6 30.30 1026 10 16 0.00 0.00
11:52 am 11:52 Mostly Cloudy 67 19.4 51 10.6 57 57 S 5 7 30.29 1026 10 16 0.00 0.00
12:52 pm 12:52 Cloudy 65 18.3 51 10.6 61 61 S 7 11 30.27 1025 10 16 0.00 0.00
1:52 pm 13:52 Mostly Cloudy 64 17.8 50 10 60 60 S 7 11 30.24 1024 10 16 0.00 0.00
2:52 pm 14:52 Mostly Cloudy 70 21.1 49 9.4 47 47 S 6 9 30.21 1023 10 16 0.00 0.00
3:52 pm 15:52 Cloudy 68 20 51 10.6 55 55 S 10 17 30.19 1022 10 16 0.00 0.00
4:52 pm 16:52 Cloudy 67 19.4 51 10.6 57 57 SSW 6 9 30.19 1022 10 16 0.00 0.00
5:52 pm 17:52 Cloudy 65 18.3 51 10.6 61 61 SSW 5 7 30.19 1022 10 16 0.00 0.00
6:52 pm 18:52 Cloudy 65 18.3 51 10.6 61 61 S 5 7 30.19 1023 10 16 0.00 0.00
8:52 pm 20:52 Cloudy 62 16.7 53 11.7 73 73 S 6 9 30.21 1023 10 16 0.00 0.00
9:52 pm 21:52 Cloudy 61 16.1 54 12.2 78 78 S 5 7 30.22 1024 10 16 0.00 0.00
10:52 pm 22:52 Cloudy 61 16.1 55 12.8 81 81 SSW 5 7 30.22 1023 10 16 0.00 0.00
11:52 pm 23:52 Cloudy 60 15.6 57 13.9 90 90 SSW 6 9 30.20 1023 10 16 0.00 0.00

Powered by AerisWeather